Hourly Weather Barykovka

Today, 9 March, Tuesday

Time Temperature Precipitation Wind Pressure Humidity
00:00 -13°C° 0 mm 2 mps 736 mmHg 92%
01:00 -14°C° 0 mm 2 mps 737 mmHg 92%
02:00 -14°C° 0 mm 2 mps 737 mmHg 93%
03:00 -14°C° 0 mm 2 mps 737 mmHg 94%
04:00 -14°C° 0 mm 2 mps 738 mmHg 95%
05:00 -14°C° 0 mm 2 mps 738 mmHg 95%
06:00 -14°C° 0 mm 2 mps 739 mmHg 95%
07:00 -16°C° 0 mm 3 mps 739 mmHg 95%
08:00 -16°C° 0 mm 3 mps 740 mmHg 95%
09:00 -15°C° 0 mm 3 mps 740 mmHg 93%
10:00 -14°C° 0 mm 3 mps 741 mmHg 91%
11:00 -14°C° 0 mm 4 mps 741 mmHg 89%
12:00 -13°C° 0 mm 3 mps 741 mmHg 88%
13:00 -13°C° 0 mm 3 mps 742 mmHg 86%
14:00 -12°C° 0 mm 3 mps 742 mmHg 84%
15:00 -13°C° 0 mm 3 mps 742 mmHg 87%
16:00 -13°C° 0 mm 2 mps 742 mmHg 89%
17:00 -14°C° 0 mm 2 mps 742 mmHg 91%
18:00 -14°C° 0 mm 2 mps 743 mmHg 92%
19:00 -15°C° 0 mm 2 mps 744 mmHg 92%
20:00 -15°C° 0 mm 2 mps 744 mmHg 93%
21:00 -16°C° 0 mm 2 mps 744 mmHg 93%
22:00 -17°C° 0 mm 2 mps 745 mmHg 93%
23:00 -18°C° 0 mm 2 mps 745 mmHg 94%

Tomorrow, 10 March, Wednesday

Time Temperature Precipitation Wind Pressure Humidity
00:00 -19°C° 0 mm 2 mps 745 mmHg 94%
01:00 -20°C° 0 mm 2 mps 746 mmHg 94%
02:00 -21°C° 0 mm 2 mps 746 mmHg 95%
03:00 -21°C° 0 mm 2 mps 746 mmHg 96%
04:00 -19°C° 0 mm 1 mps 747 mmHg 97%
05:00 -20°C° 0 mm 1 mps 747 mmHg 97%
06:00 -19°C° 0 mm 1 mps 747 mmHg 97%
07:00 -18°C° 0 mm 1 mps 748 mmHg 96%
08:00 -17°C° 0 mm 1 mps 748 mmHg 96%
09:00 -16°C° 0 mm 1 mps 748 mmHg 93%
10:00 -14°C° 0 mm 1 mps 749 mmHg 91%
11:00 -13°C° 0 mm 1 mps 749 mmHg 88%
12:00 -13°C° 0 mm 1 mps 749 mmHg 88%
13:00 -12°C° 0 mm 1 mps 749 mmHg 89%
14:00 -11°C° 0 mm 1 mps 749 mmHg 89%
15:00 -12°C° 0.1 mm 1 mps 749 mmHg 91%
16:00 -14°C° 0.1 mm 2 mps 749 mmHg 93%
17:00 -15°C° 0.1 mm 2 mps 749 mmHg 95%
18:00 -17°C° 0.1 mm 3 mps 749 mmHg 94%
19:00 -18°C° 0.1 mm 3 mps 749 mmHg 94%
20:00 -19°C° 0.1 mm 3 mps 750 mmHg 93%
21:00 -21°C° 0 mm 3 mps 750 mmHg 93%
22:00 -23°C° 0 mm 3 mps 750 mmHg 93%
23:00 -24°C° 0 mm 3 mps 750 mmHg 92%

Day after tomorrow, 11 March, Thursday

Time Temperature Precipitation Wind Pressure Humidity
00:00 -24°C° 0 mm 2 mps 751 mmHg 92%
01:00 -25°C° 0 mm 2 mps 751 mmHg 91%
02:00 -26°C° 0 mm 2 mps 751 mmHg 90%
03:00 -26°C° 0 mm 2 mps 752 mmHg 89%
04:00 -27°C° 0 mm 2 mps 752 mmHg 88%
05:00 -27°C° 0 mm 2 mps 752 mmHg 87%
06:00 -26°C° 0 mm 2 mps 752 mmHg 87%
07:00 -25°C° 0 mm 2 mps 752 mmHg 86%
08:00 -24°C° 0 mm 2 mps 753 mmHg 86%
09:00 -23°C° 0 mm 2 mps 753 mmHg 83%
10:00 -20°C° 0 mm 2 mps 753 mmHg 80%
11:00 -18°C° 0 mm 2 mps 753 mmHg 78%
12:00 -17°C° 0 mm 2 mps 753 mmHg 78%
13:00 -17°C° 0 mm 2 mps 753 mmHg 78%
14:00 -16°C° 0 mm 2 mps 753 mmHg 78%
15:00 -17°C° 0 mm 2 mps 752 mmHg 81%
16:00 -18°C° 0 mm 2 mps 752 mmHg 84%
17:00 -19°C° 0 mm 2 mps 752 mmHg 87%
18:00 -20°C° 0 mm 2 mps 752 mmHg 86%
19:00 -21°C° 0 mm 2 mps 752 mmHg 85%
20:00 -23°C° 0 mm 2 mps 752 mmHg 85%
21:00 -23°C° 0 mm 2 mps 752 mmHg 84%
22:00 -23°C° 0 mm 2 mps 753 mmHg 84%
23:00 -24°C° 0 mm 3 mps 753 mmHg 83%

12 March, Friday

Time Temperature Precipitation Wind Pressure Humidity
00:00 -25°C° 0 mm 3 mps 752 mmHg 84%
01:00 -25°C° 0 mm 3 mps 752 mmHg 84%
02:00 -25°C° 0 mm 3 mps 752 mmHg 85%
03:00 -25°C° 0 mm 3 mps 752 mmHg 85%
04:00 -25°C° 0 mm 3 mps 752 mmHg 86%
05:00 -25°C° 0 mm 3 mps 752 mmHg 87%
06:00 -23°C° 0 mm 3 mps 752 mmHg 86%
07:00 -23°C° 0 mm 4 mps 752 mmHg 86%
08:00 -22°C° 0 mm 4 mps 752 mmHg 86%
09:00 -19°C° 0 mm 4 mps 752 mmHg 84%
10:00 -18°C° 0 mm 5 mps 752 mmHg 83%
11:00 -15°C° 0 mm 5 mps 752 mmHg 81%
12:00 -15°C° 0 mm 5 mps 751 mmHg 81%
13:00 -14°C° 0 mm 5 mps 751 mmHg 81%
14:00 -13°C° 0 mm 5 mps 751 mmHg 81%
15:00 -14°C° 0 mm 5 mps 751 mmHg 82%
16:00 -14°C° 0 mm 5 mps 750 mmHg 83%
17:00 -15°C° 0 mm 4 mps 750 mmHg 84%
18:00 -15°C° 0 mm 5 mps 750 mmHg 81%
19:00 -15°C° 0 mm 5 mps 750 mmHg 79%
20:00 -16°C° 0 mm 6 mps 749 mmHg 76%
21:00 -15°C° 0 mm 6 mps 749 mmHg 75%
22:00 -15°C° 0 mm 6 mps 749 mmHg 73%
23:00 -14°C° 0 mm 7 mps 748 mmHg 71%

13 March, Saturday

Time Temperature Precipitation Wind Pressure Humidity
00:00 -14°C° 0 mm 7 mps 748 mmHg 71%
01:00 -13°C° 0 mm 7 mps 747 mmHg 71%
02:00 -13°C° 0 mm 7 mps 747 mmHg 71%
03:00 -13°C° 0 mm 7 mps 747 mmHg 72%
04:00 -13°C° 0 mm 7 mps 746 mmHg 74%
05:00 -13°C° 0 mm 7 mps 746 mmHg 76%
06:00 -13°C° 0.4 mm 8 mps 746 mmHg 81%
07:00 -12°C° 0.4 mm 8 mps 746 mmHg 86%
08:00 -12°C° 0.4 mm 8 mps 746 mmHg 91%
09:00 -11°C° 0.2 mm 8 mps 746 mmHg 91%
10:00 -11°C° 0.2 mm 8 mps 746 mmHg 91%
11:00 -9°C° 0.2 mm 7 mps 746 mmHg 92%
12:00 -8°C° 0.1 mm 7 mps 746 mmHg 92%
13:00 -7°C° 0.1 mm 7 mps 746 mmHg 92%
14:00 -6°C° 0.1 mm 6 mps 746 mmHg 93%
15:00 -6°C° 0.1 mm 6 mps 746 mmHg 93%
16:00 -5°C° 0.1 mm 6 mps 746 mmHg 93%
17:00 -5°C° 0.1 mm 5 mps 745 mmHg 94%
18:00 -5°C° 0 mm 5 mps 745 mmHg 94%
19:00 -6°C° 0 mm 5 mps 745 mmHg 94%
20:00 -6°C° 0 mm 5 mps 745 mmHg 95%
21:00 -5°C° 0 mm 5 mps 745 mmHg 94%
22:00 -5°C° 0 mm 6 mps 744 mmHg 94%
23:00 -5°C° 0 mm 6 mps 744 mmHg 93%

14 March, Sunday

Time Temperature Precipitation Wind Pressure Humidity
00:00 -5°C° 0.1 mm 6 mps 744 mmHg 93%
01:00 -5°C° 0.1 mm 6 mps 743 mmHg 93%
02:00 -6°C° 0.1 mm 7 mps 743 mmHg 93%
03:00 -7°C° 0.1 mm 7 mps 743 mmHg 92%
04:00 -6°C° 0.1 mm 6 mps 743 mmHg 91%
05:00 -6°C° 0.1 mm 6 mps 742 mmHg 90%
06:00 -8°C° 0 mm 7 mps 742 mmHg 88%
07:00 -8°C° 0 mm 7 mps 742 mmHg 86%
08:00 -8°C° 0 mm 7 mps 742 mmHg 85%
09:00 -7°C° 0.1 mm 7 mps 742 mmHg 87%
10:00 -7°C° 0.1 mm 7 mps 742 mmHg 90%
11:00 -6°C° 0.1 mm 8 mps 741 mmHg 92%
12:00 -6°C° 0.1 mm 7 mps 741 mmHg 92%
13:00 -4°C° 0.1 mm 7 mps 741 mmHg 91%
14:00 -4°C° 0.1 mm 7 mps 741 mmHg 91%
15:00 -4°C° 0.1 mm 6 mps 741 mmHg 91%
16:00 -4°C° 0.1 mm 6 mps 741 mmHg 92%
17:00 -4°C° 0.1 mm 5 mps 740 mmHg 92%
18:00 -5°C° 0 mm 5 mps 740 mmHg 92%
19:00 -5°C° 0 mm 5 mps 740 mmHg 92%
20:00 -5°C° 0 mm 5 mps 740 mmHg 91%
21:00 -5°C° 0 mm 5 mps 740 mmHg 91%
22:00 -6°C° 0 mm 5 mps 740 mmHg 91%
23:00 -6°C° 0 mm 5 mps 740 mmHg 90%
Show more